• Join FlightAware (Why Join?)
  • Login
  • US Flag 
07:17PM EDT


 

Airport Tracker/Info


-or-


 

Live Flight TrackerFlight Track Log ✈ UAL139 ✈ 18-Jun-2013 ✈ KDEN - KSEA

Flight Track Log - Related Links

Times and Time Zones

All times are in EDT time to prevent confusion due to time zone crossing. See the UAL139 flight status page for this flight to view local times or setup timezone preferences in your user account.

Time Position Orientation Groundspeed Altitude Reporting Facility
EDT Latitude Longitude Course Direction KTS MPH feet Rate Location/Type
03:02PM 39.8570 -104.6760 315° West 10 12  Level FlightAware
03:09PM 39.8750 -104.6850 322° Northwest 27 31 300 Level FlightAware
03:09PM 39.8760 -104.6850 360° North 31 36 600 Level FlightAware
03:09PM 39.8770 -104.6850 360° North 21 24 600 Level FlightAware
03:12PM 39.8950 -104.6850 360° North 17 20 660 Level FlightAware
03:16PM 40.0739 -104.9501 312° West  Level Estimated
03:17PM 40.1573 -105.0711 312° West  Level Estimated
03:17PM 39.8960 -104.6960 312° West 19 22  Level FlightAware
03:17PM 39.8893 -104.6960 180° South 93 107 5,200 4,980 Climbing FlightAware ADS-B
03:18PM 39.8801 -104.6960 180° South 151 174 5,200  Level FlightAware ADS-B
03:18PM 39.8672 -104.6960 180° South 198 228 5,200 240 Level FlightAware ADS-B
03:18PM 39.8616 -104.6970 188° South 211 243 5,300 1,620 Climbing FlightAware ADS-B
03:18PM 39.8506 -104.6970 180° South 210 242 5,700 2,040 Climbing FlightAware ADS-B
03:19PM 39.8251 -104.7030 190° South 225 259 6,600 1,800 Climbing FlightAware ADS-B
03:19PM 39.8194 -104.7090 219° Southwest 232 267 6,700 1,200 Climbing FlightAware ADS-B
03:19PM 39.8172 -104.7120 226° Southwest 237 273 6,800 960 Climbing FlightAware ADS-B
03:19PM 39.8151 -104.7170 241° Southwest 243 280 6,800 960 Level FlightAware ADS-B
03:19PM 39.8136 -104.7210 244° Southwest 249 287 6,900 1,320 Climbing FlightAware ADS-B
03:19PM 39.8120 -104.7290 255° West 254 292 7,000 1,200 Climbing FlightAware ADS-B
03:19PM 39.8118 -104.7350 268° West 256 295 7,100 1,500 Climbing FlightAware ADS-B
03:19PM 39.8123 -104.7410 276° West 261 300 7,200 1,500 Climbing FlightAware ADS-B
03:19PM 39.8137 -104.7470 287° West 263 303 7,300 2,220 Climbing FlightAware ADS-B
03:19PM 39.8161 -104.7540 294° West 266 306 7,500 1,980 Climbing FlightAware ADS-B
03:19PM 39.8210 -104.7640 303° West 271 312 7,700 1,500 Climbing FlightAware ADS-B
03:19PM 39.8241 -104.7690 309° West 275 316 7,800 1,680 Climbing FlightAware ADS-B
03:20PM 39.8398 -104.7920 312° West 289 333 8,300 1,920 Climbing FlightAware ADS-B
03:20PM 39.8549 -104.8130 313° West 294 338 8,900 2,040 Climbing FlightAware ADS-B
03:20PM 39.8610 -104.8210 315° West 297 342 9,100 1,800 Climbing FlightAware ADS-B
03:20PM 39.8681 -104.8270 327° Northwest 300 345 9,300 1,980 Climbing FlightAware ADS-B
03:20PM 39.8788 -104.8340 333° Northwest 303 349 9,600 1,560 Climbing FlightAware ADS-B
03:21PM 39.9547 -104.8530 349° North 308 354 10,900 1,500 Climbing FlightAware ADS-B
03:22PM 40.0060 -104.8670 348° North 368 423 11,700 1,980 Climbing FlightAware ADS-B
03:22PM 40.0583 -104.8800 349° North 371 427 13,000 2,460 Climbing FlightAware ADS-B
03:23PM 40.1127 -104.8950 348° North 373 429 14,300 2,460 Climbing FlightAware ADS-B
03:23PM 40.1692 -104.9100 349° North 379 436 15,700 2,400 Climbing FlightAware ADS-B
03:24PM 40.2226 -104.9240 349° North 385 443 16,900 2,160 Climbing FlightAware ADS-B
03:24PM 40.2760 -104.9380 349° North 390 449 17,900 2,760 Climbing FlightAware ADS-B
03:25PM 40.3311 -104.9520 349° North 371 427 19,800 3,120 Climbing FlightAware ADS-B
03:25PM 40.3819 -104.9660 348° North 363 418 21,200 2,340 Climbing FlightAware ADS-B
03:26PM 40.4316 -104.9790 349° North 368 423 22,200 1,980 Climbing FlightAware ADS-B
03:26PM 40.4831 -104.9930 348° North 369 425 23,200 1,860 Climbing FlightAware ADS-B
03:27PM 40.5343 -105.0060 349° North 375 432 24,100 1,620 Climbing FlightAware ADS-B
03:27PM 40.5857 -105.0200 348° North 379 436 24,900 1,080 Climbing FlightAware ADS-B
03:28PM 40.6390 -105.0340 349° North 373 429 25,200 240 Climbing FlightAware ADS-B
03:28PM 40.6896 -105.0480 348° North 372 428 25,200  Level FlightAware ADS-B
03:29PM 40.7351 -105.0600 349° North 371 427 25,200  Level FlightAware ADS-B
03:29PM 40.7496 -105.0660 343° North 369 425 25,200  Level FlightAware ADS-B
03:29PM 40.7576 -105.0690 344° North 367 422 25,200 -480 Level FlightAware ADS-B
03:29PM 40.7699 -105.0780 331° Northwest 366 421 25,100 -600 Descending FlightAware ADS-B
03:29PM 40.7881 -105.0940 326° Northwest 365 420 25,000 -180 Descending FlightAware ADS-B
03:30PM 40.8267 -105.1380 319° Northwest 365 420 25,000  Level FlightAware ADS-B
03:30PM 40.8652 -105.1810 320° Northwest 358 412 25,000  Level FlightAware ADS-B
03:31PM 40.9230 -105.2470 319° Northwest 356 410 25,000  Level FlightAware
03:32PM 40.9760 -105.3070 319° Northwest 360 414 25,000  Level FlightAware
03:33PM 41.0310 -105.3700 319° Northwest 361 415 25,000  Level FlightAware
03:33PM 41.0830 -105.4280 320° Northwest 362 417 25,000  Level FlightAware
03:34PM 41.1250 -105.4770 319° Northwest 365 420 25,000  Level FlightAware
03:35PM 41.1810 -105.5400 320° Northwest 361 415 25,000  Level FlightAware
03:36PM 41.2280 -105.5950 319° Northwest 363 418 25,000  Level FlightAware
03:36PM 41.3140 -105.7030 317° Northwest 362 417 25,000  Level FlightAware
03:37PM 41.3490 -105.7520 314° West 361 415 25,000  Level FlightAware
03:38PM 41.4030 -105.8290 313° West 370 426 25,000 180 Level FlightAware
03:38PM 41.4590 -105.8930 319° Northwest 385 443 25,300 600 Climbing FlightAware
03:39PM 41.5180 -105.9510 324° Northwest 404 465 25,900 900 Climbing FlightAware
03:40PM 41.5840 -106.0100 326° Northwest 419 482 26,600 480 Climbing FlightAware
03:40PM 41.6360 -106.0530 328° Northwest 419 482 26,600  Level FlightAware
03:41PM 41.6930 -106.1010 328° Northwest 419 482 26,600  Level FlightAware
03:42PM 41.7600 -106.1580 328° Northwest 419 482 26,600  Level FlightAware
03:43PM 41.8430 -106.2270 328° Northwest 419 482 26,600  Level FlightAware
03:44PM 41.8940 -106.2700 328° Northwest 419 482 26,600 3,720 Level FlightAware
03:44PM 42.0572 -106.3939 328° Northwest 462 532 31,800 3,420 Climbing Salt Lake Center
03:45PM 42.1675 -106.4767 331° Northwest 468 539 32,800 840 Climbing Salt Lake Center
03:46PM 42.2861 -106.5972 323° Northwest 476 548 33,600 960 Climbing Salt Lake Center
03:47PM 42.3717 -106.7553 306° West 473 544 34,900 1,080 Climbing Denver Center
03:49PM 42.4481 -106.8936 307° West 471 542 36,000 480 Climbing Denver Center
03:50PM 42.5317 -107.0522 306° West 469 540 36,000  Level Denver Center
03:51PM 42.6025 -107.1861 306° West 464 534 36,000  Level Denver Center
03:52PM 42.6853 -107.3433 306° West 462 532 36,000  Level Denver Center
03:53PM 42.7464 -107.4589 306° West 462 532 36,000  Level Salt Lake Center
03:54PM 42.8289 -107.6167 306° West 462 532 36,000  Level Salt Lake Center
03:55PM 42.9003 -107.7536 305° West 463 533 36,000  Level Salt Lake Center
03:56PM 42.9833 -107.9144 305° West 465 535 36,000  Level Salt Lake Center
03:57PM 43.0550 -108.0522 305° West 466 536 36,000  Level Salt Lake Center
03:58PM 43.1381 -108.2139 305° West 466 536 36,000  Level Salt Lake Center
03:59PM 43.2069 -108.3489 305° West 458 527 36,000  Level Salt Lake Center
04:00PM 43.2886 -108.5106 305° West 461 531 36,000  Level Salt Lake Center
04:01PM 43.3589 -108.6483 305° West 462 532 36,000  Level Salt Lake Center
04:02PM 43.4278 -108.7869 304° West 461 531 36,000  Level Salt Lake Center
04:03PM 43.5089 -108.9467 305° West 458 527 36,000  Level Salt Lake Center
04:04PM 43.5781 -109.0867 304° West 459 528 36,000  Level Salt Lake Center
04:05PM 43.6597 -109.2503 305° West 463 533 36,000  Level Salt Lake Center
04:06PM 43.7294 -109.3911 304° West 464 534 36,000  Level Salt Lake Center
04:07PM 43.8117 -109.5553 305° West 464 534 36,000  Level Salt Lake Center
04:08PM 43.8817 -109.6986 304° West 467 537 36,000  Level Salt Lake Center
04:09PM 43.9514 -109.8433 304° West 470 541 36,000  Level Salt Lake Center
04:10PM 44.0322 -110.0103 304° West 468 539 36,000  Level Salt Lake Center
04:11PM 44.1008 -110.1550 303° West 468 539 36,000  Level Salt Lake Center
04:12PM 44.1817 -110.3236 304° West 469 540 36,000  Level Salt Lake Center
04:13PM 44.2519 -110.4700 304° West 474 545 36,000  Level Salt Lake Center
04:14PM 44.3319 -110.6400 303° West 471 542 36,000  Level Salt Lake Center
04:15PM 44.4003 -110.7861 303° West 470 541 36,000  Level Salt Lake Center
04:16PM 44.4814 -110.9572 304° West 473 544 36,000  Level Salt Lake Center
04:17PM 44.5506 -111.1047 303° West 475 547 36,000  Level Salt Lake Center
04:18PM 44.6308 -111.2783 303° West 480 552 36,000  Level Salt Lake Center
04:19PM 44.6975 -111.4247 303° West 477 549 36,000  Level Salt Lake Center
04:20PM 44.7761 -111.5964 303° West 475 547 36,000  Level Salt Lake Center
04:21PM 44.8442 -111.7456 303° West 474 545 36,000  Level Salt Lake Center
04:22PM 44.9122 -111.8961 303° West 476 548 36,000  Level Salt Lake Center
04:23PM 44.9903 -112.0714 302° West 475 547 36,000  Level Salt Lake Center
04:24PM 45.0583 -112.2222 303° West 476 548 36,000  Level Salt Lake Center
04:25PM 45.1369 -112.3972 303° West 474 545 36,000  Level Salt Lake Center
04:26PM 45.2039 -112.5506 302° West 476 548 36,000  Level Salt Lake Center
04:27PM 45.2822 -112.7275 302° West 475 547 36,000  Level Salt Lake Center
04:29PM 45.3481 -112.8794 302° West 472 543 36,000  Level Salt Lake Center
04:30PM 45.4172 -113.0375 302° West 477 549 36,000  Level Salt Lake Center
04:31PM 45.4861 -113.1967 302° West 473 544 36,000  Level Salt Lake Center
04:32PM 45.5539 -113.3567 301° West 471 542 36,000  Level Salt Lake Center
04:33PM 45.6233 -113.5561 297° West 470 541 36,000 -60 Level Salt Lake Center
04:34PM 45.6297 -113.7039 274° West 457 526 35,900  Descending Salt Lake Center
04:35PM 45.6194 -113.9194 266° West 455 524 36,000  Climbing Salt Lake Center
04:36PM 45.6433 -114.0978 281° West 471 542 36,000  Level Salt Lake Center
04:37PM 45.7581 -114.3281 306° West 484 557 36,000  Level Seattle Center
04:38PM 45.7956 -114.4131 302° West 484 557 36,000  Level Salt Lake Center
04:39PM 45.8717 -114.6000 300° West 487 560 36,000  Level Salt Lake Center
04:40PM 45.9419 -114.7564 303° West 489 563 36,000  Level Salt Lake Center
04:41PM 46.0222 -114.9406 302° West 488 562 36,000  Level Salt Lake Center
04:42PM 46.0939 -115.1081 302° West 484 557 36,000 -60 Level Salt Lake Center
04:43PM 46.1539 -115.2494 302° West 484 557 35,900  Descending Salt Lake Center
04:44PM 46.2386 -115.4503 301° West 489 563 36,000  Climbing Salt Lake Center
04:45PM 46.3100 -115.6186 302° West 491 565 35,900 -60 Descending Salt Lake Center
04:46PM 46.3806 -115.7856 302° West 488 562 35,900  Level Salt Lake Center
04:47PM 46.4517 -115.9578 301° West 495 570 36,000  Climbing Salt Lake Center
04:48PM 46.5222 -116.1281 301° West 494 568 36,000  Level Salt Lake Center
04:49PM 46.5936 -116.2992 301° West 495 570 36,000 -60 Level Salt Lake Center
04:50PM 46.6636 -116.4700 301° West 493 567 35,900  Descending Salt Lake Center
04:57PM 47.1260 -117.6240 301° West 493 567 36,000  Climbing FlightAware
04:57PM 47.1730 -117.7450 300° West 495 570 36,000  Level FlightAware
04:58PM 47.2190 -117.8620 300° West 496 571 36,000  Level FlightAware
04:59PM 47.2710 -117.9970 300° West 495 570 36,000  Level FlightAware
04:59PM 47.3130 -118.1080 299° West 494 568 36,000  Level FlightAware
05:00PM 47.3560 -118.2200 300° West 493 567 36,000  Level FlightAware
05:01PM 47.4070 -118.3530 300° West 493 567 36,000  Level FlightAware
05:01PM 47.4540 -118.4770 299° West 489 563 36,000  Level FlightAware
05:02PM 47.5020 -118.6040 299° West 493 567 36,000 120 Level FlightAware
05:03PM 47.5500 -118.7300 299° West 495 570 36,200 600 Climbing FlightAware
05:04PM 47.5910 -118.8410 299° West 493 567 36,800 780 Climbing FlightAware
05:04PM 47.6420 -118.9780 299° West 496 571 37,300 600 Climbing FlightAware
05:05PM 47.6860 -119.0950 299° West 498 573 37,700 480 Climbing FlightAware
05:06PM 47.7330 -119.2210 299° West 497 572 38,000 180 Climbing FlightAware
05:06PM 47.7810 -119.3520 299° West 497 572 38,000  Level FlightAware
05:07PM 47.8230 -119.4660 299° West 497 572 38,000  Level FlightAware
05:08PM 47.8740 -119.6070 298° West 498 573 38,000  Level FlightAware
05:09PM 47.9190 -119.7320 298° West 498 573 38,000  Level FlightAware
05:09PM 47.9670 -119.8630 299° West 497 572 38,000  Level FlightAware
05:10PM 48.0120 -119.9900 298° West 498 573 38,000  Level FlightAware
05:11PM 48.0480 -120.0890 299° West 502 578 38,000  Level FlightAware
05:11PM 48.1000 -120.2370 298° West 497 572 38,000  Level FlightAware
05:12PM 48.1430 -120.3590 298° West 499 574 38,000  Level FlightAware
05:13PM 48.1930 -120.4990 298° West 498 573 38,000  Level FlightAware
05:13PM 48.2350 -120.6190 298° West 495 570 38,000  Level FlightAware
05:14PM 48.2750 -120.7340 298° West 496 571 38,000  Level FlightAware
05:15PM 48.3100 -120.8340 298° West 496 571 38,000  Level FlightAware
05:15PM 48.3570 -120.9710 297° West 495 570 38,000  Level FlightAware
05:16PM 48.4050 -121.1100 298° West 496 571 38,000  Level FlightAware
05:17PM 48.4520 -121.2490 297° West 498 573 38,000  Level FlightAware
05:18PM 48.4940 -121.3730 297° West 503 579 38,000  Level FlightAware
05:18PM 48.5370 -121.4970 298° West 504 580 38,000  Level FlightAware
05:19PM 48.5840 -121.6370 297° West 503 579 38,000  Level FlightAware
05:20PM 48.6250 -121.7600 297° West 504 580 38,000  Level FlightAware
05:20PM 48.6720 -121.9010 297° West 505 581 38,000  Level FlightAware
05:21PM 48.7150 -122.0310 297° West 506 582 38,000  Level FlightAware
05:22PM 48.7600 -122.1670 297° West 509 586 38,000  Level FlightAware
05:22PM 48.8050 -122.3030 297° West 510 587 38,000  Level FlightAware
05:23PM 48.8440 -122.4240 296° West 509 586 38,000  Level FlightAware
05:24PM 48.8880 -122.5590 296° West 510 587 38,000  Level FlightAware
05:24PM 48.9340 -122.7000 296° West 510 587 38,000  Level FlightAware
05:25PM 48.9750 -122.8290 296° West 514 592 38,000  Level FlightAware
05:26PM 49.0230 -122.9780 296° West 514 592 38,000  Level FlightAware
05:27PM 49.0650 -123.1090 296° West 516 594 38,000  Level FlightAware
05:27PM 49.1230 -123.2430 304° West 520 598 38,000  Level FlightAware
05:28PM 49.1830 -123.3680 306° West 522 601 38,000  Level FlightAware
05:29PM 49.2440 -123.4940 307° West 522 601 38,000  Level FlightAware
05:29PM 49.2980 -123.6070 306° West 522 601 38,000  Level FlightAware
05:30PM 49.3530 -123.7220 306° West 521 600 38,000  Level FlightAware
05:31PM 49.4200 -123.8630 306° West 519 597 38,000  Level FlightAware
05:32PM 49.4790 -123.9890 306° West 520 598 38,000  Level FlightAware
05:32PM 49.5360 -124.1110 306° West 522 601 38,000  Level FlightAware
05:33PM 49.5970 -124.2410 306° West 521 600 38,000  Level FlightAware
05:34PM 49.6540 -124.3640 306° West 517 595 38,000  Level FlightAware
05:34PM 49.7140 -124.4930 306° West 515 593 38,000  Level FlightAware
05:35PM 49.7750 -124.6240 306° West 514 592 38,000  Level FlightAware
05:36PM 49.8300 -124.7460 305° West 514 592 38,000  Level FlightAware
05:36PM 49.8850 -124.8650 306° West 516 594 38,000  Level FlightAware
05:37PM 49.9400 -124.9870 305° West 516 594 38,000  Level FlightAware
05:38PM 49.9990 -125.1180 305° West 516 594 38,000  Level FlightAware
05:39PM 50.0600 -125.2540 305° West 517 595 38,000  Level FlightAware
05:39PM 50.1320 -125.4130 305° West 512 589 38,000  Level FlightAware
05:40PM 50.1930 -125.5500 305° West 515 593 38,000  Level FlightAware
05:41PM 50.2420 -125.6610 305° West 514 592 38,000  Level FlightAware
05:42PM 50.3010 -125.7970 304° West 515 593 38,000  Level FlightAware
05:42PM 50.3640 -125.9380 305° West 513 590 38,000  Level FlightAware
05:43PM 50.4070 -126.0360 305° West 513 590 38,000  Level FlightAware
05:44PM 50.4690 -126.1800 304° West 513 590 38,000  Level FlightAware
05:44PM 50.5290 -126.3190 304° West 514 592 38,000  Level FlightAware
05:45PM 50.5920 -126.4660 304° West 514 592 38,000  Level FlightAware
05:46PM 50.6900 -126.6960 304° West 515 593 38,000  Level FlightAware
05:47PM 50.7590 -126.8570 304° West 516 594 38,000  Level FlightAware
05:48PM 50.8260 -127.0170 304° West 517 595 38,000  Level FlightAware
05:49PM 50.8790 -127.1430 304° West 508 585 38,000  Level FlightAware
05:50PM 50.9450 -127.3000 304° West 508 585 38,000  Level FlightAware
05:51PM 51.0460 -127.5400 304° West 508 585 38,000  Level FlightAware
05:52PM 51.0220 -127.4870 126° Southeast 508 585 38,000  Level FlightAware
05:53PM 51.0670 -127.5920 304° West 508 585 38,000  Level FlightAware
05:53PM 51.1070 -127.6870 304° West 508 585 38,000  Level FlightAware
05:54PM 51.1600 -127.8110 304° West 508 585 38,000  Level FlightAware
05:55PM 51.2070 -127.9220 304° West 508 585 38,000  Level FlightAware
05:55PM 51.2520 -128.0310 303° West 508 585 38,000  Level FlightAware
05:56PM 51.2950 -128.1320 304° West 508 585 38,000  Level FlightAware
05:57PM 51.3490 -128.2590 304° West 508 585 38,000  Level FlightAware
05:58PM 51.4030 -128.3890 304° West 508 585 38,000  Level FlightAware
05:58PM 51.4570 -128.5160 304° West 508 585 38,000  Level FlightAware
05:59PM 51.4980 -128.6150 304° West 508 585 38,000  Level FlightAware
06:00PM 51.5660 -128.7770 304° West 508 585 38,000  Level FlightAware
06:01PM 51.6080 -128.8760 304° West 508 585 38,000 -3,180 Level FlightAware
06:02PM 51.6667 -128.1333 304° West 390 449 32,600 -2,640 Descending Vancouver Center
06:03PM 51.6000 -128.0000 129° Southeast 390 449 32,500 -120 Descending Vancouver Center
06:04PM 51.5167 -127.8500 132° Southeast 380 437 32,400 -180 Descending Vancouver Center
06:05PM 51.4500 -127.7333 132° Southeast 380 437 32,200 -240 Descending Vancouver Center
06:06PM 51.3833 -127.6167 132° Southeast 380 437 32,000 -120 Descending Vancouver Center
06:12PM 50.9780 -126.9090 132° Southeast 375 432 31,500 -120 Descending FlightAware
06:12PM 50.9320 -126.8340 134° Southeast 374 430 31,400 -120 Descending FlightAware
06:13PM 50.8860 -126.7590 134° Southeast 372 428 31,400 -120 Level FlightAware
06:14PM 50.8320 -126.6720 134° Southeast 369 425 31,300 -240 Descending FlightAware
06:14PM 50.7820 -126.5910 134° Southeast 354 407 31,100 -300 Descending FlightAware
06:15PM 50.7330 -126.5120 134° Southeast 345 397 30,900 -300 Descending FlightAware
06:16PM 50.6870 -126.4390 135° Southeast 342 394 30,700 -300 Descending FlightAware
06:16PM 50.6450 -126.3720 135° Southeast 338 389 30,500 -300 Descending FlightAware
06:17PM 50.6010 -126.3010 134° Southeast 340 391 30,300 -300 Descending FlightAware
06:18PM 50.5510 -126.2210 135° Southeast 341 392 30,100 -300 Descending FlightAware
06:19PM 50.5020 -126.1440 135° Southeast 333 383 29,900 -240 Descending FlightAware
06:19PM 50.4610 -126.0790 135° Southeast 329 379 29,800 -240 Descending FlightAware
06:20PM 50.4160 -126.0090 135° Southeast 328 377 29,600 -300 Descending FlightAware
06:21PM 50.3670 -125.9320 135° Southeast 328 377 29,400 -300 Descending FlightAware
06:21PM 50.3250 -125.8660 135° Southeast 323 372 29,200 -300 Descending FlightAware
06:22PM 50.2840 -125.8010 135° Southeast 320 368 29,000 -300 Descending FlightAware
06:23PM 50.2360 -125.7270 135° Southeast 318 366 28,800 -300 Descending FlightAware
06:23PM 50.1960 -125.6640 135° Southeast 316 364 28,600 -300 Descending FlightAware
06:24PM 50.1490 -125.5920 136° Southeast 316 364 28,400 -300 Descending FlightAware
06:25PM 50.1040 -125.5220 135° Southeast 313 360 28,200 -240 Descending FlightAware
06:26PM 50.0640 -125.4600 135° Southeast 311 358 28,100 -240 Descending FlightAware
06:26PM 50.0210 -125.3950 136° Southeast 313 360 27,900 -300 Descending FlightAware
06:27PM 49.9800 -125.3330 136° Southeast 311 358 27,700 -300 Descending FlightAware
06:28PM 49.9350 -125.2640 135° Southeast 309 356 27,500 -300 Descending FlightAware
06:28PM 49.8890 -125.1930 135° Southeast 306 352 27,300 -300 Descending FlightAware
06:29PM 49.8490 -125.1320 135° Southeast 306 352 27,100 -300 Descending FlightAware
06:30PM 49.8090 -125.0710 135° Southeast 308 354 26,900 -240 Descending FlightAware
06:30PM 49.7670 -125.0120 138° Southeast 307 353 26,800 -240 Descending FlightAware
06:31PM 49.7190 -124.9480 139° Southeast 305 351 26,600 -300 Descending FlightAware
06:32PM 49.6770 -124.8910 139° Southeast 302 348 26,400 -300 Descending FlightAware
06:33PM 49.6300 -124.8270 139° Southeast 299 344 26,200 -300 Descending FlightAware
06:33PM 49.5890 -124.7720 139° Southeast 300 345 26,000 -300 Descending FlightAware
06:34PM 49.5410 -124.7090 140° Southeast 299 344 25,800 -300 Descending FlightAware
06:35PM 49.4950 -124.6470 139° Southeast 296 341 25,600 -300 Descending FlightAware
06:35PM 49.4520 -124.5900 139° Southeast 293 337 25,400 -300 Descending FlightAware
06:36PM 49.4110 -124.5360 139° Southeast 294 338 25,200 -240 Descending FlightAware
06:37PM 49.3670 -124.4770 139° Southeast 297 342 25,100 -240 Descending FlightAware
06:37PM 49.3270 -124.4250 140° Southeast 296 341 24,900 -300 Descending FlightAware
06:38PM 49.2810 -124.3640 139° Southeast 294 338 24,700 -300 Descending FlightAware
06:39PM 49.2380 -124.3080 140° Southeast 293 337 24,500 -300 Descending FlightAware
06:40PM 49.1950 -124.2510 139° Southeast 292 336 24,300 -180 Descending FlightAware
06:41PM 49.1690 -124.2170 139° Southeast 285 328 24,200 -300 Descending FlightAware
06:41PM 49.0830 -124.1040 139° Southeast 281 323 23,800 -480 Descending FlightAware
06:42PM 49.0410 -124.0500 140° Southeast 278 320 23,600 -300 Descending FlightAware
06:43PM 48.9960 -123.9920 140° Southeast 277 319 23,400 -240 Descending FlightAware
06:43PM 48.9560 -123.9400 140° Southeast 277 319 23,300 -300 Descending FlightAware
06:44PM 48.9180 -123.8910 140° Southeast 279 321 23,000 -240 Descending FlightAware
06:45PM 48.8780 -123.8390 139° Southeast 276 318 23,000  Level FlightAware
06:46PM 48.8290 -123.7760 140° Southeast 280 322 23,000  Level FlightAware
06:46PM 48.7880 -123.7240 140° Southeast 280 322 23,000  Level FlightAware
06:47PM 48.7540 -123.6800 140° Southeast 280 322 23,000  Level FlightAware
06:48PM 48.7030 -123.6160 140° Southeast 280 322 23,000  Level FlightAware
06:48PM 48.6610 -123.5620 140° Southeast 280 322 23,000 -180 Level FlightAware
06:49PM 48.6220 -123.5120 140° Southeast 286 329 22,800 -900 Descending FlightAware
06:50PM 48.5610 -123.4350 140° Southeast 313 360 21,600 -1,380 Descending FlightAware
06:51PM 48.5120 -123.3730 140° Southeast 311 358 20,500 -1,500 Descending FlightAware
06:51PM 48.4660 -123.3150 140° Southeast 309 356 19,500 -1,500 Descending FlightAware
06:52PM 48.4200 -123.2570 140° Southeast 306 352 18,500 -1,440 Descending FlightAware
06:53PM 48.3770 -123.2030 140° Southeast 303 349 17,600 -1,080 Descending FlightAware
06:54PM 48.3310 -123.1450 140° Southeast 293 337 17,000 -900 Descending FlightAware
06:54PM 48.2890 -123.0930 141° Southeast 293 337 16,400 -1,140 Descending FlightAware
06:55PM 48.2460 -123.0390 140° Southeast 289 333 15,500 -1,740 Descending FlightAware
06:56PM 48.2000 -122.9820 140° Southeast 289 333 14,000 -1,740 Descending FlightAware
06:56PM 48.1590 -122.9310 140° Southeast 287 330 13,100 -1,440 Descending FlightAware
06:57PM 48.1160 -122.8780 141° Southeast 284 327 12,100 -1,500 Descending FlightAware
06:58PM 48.0760 -122.8290 141° Southeast 286 329 11,100 -1,380 Descending FlightAware
06:58PM 48.0310 -122.7730 140° Southeast 282 325 10,200 -960 Descending FlightAware
06:59PM 48.0060 -122.7420 140° Southeast 272 313 10,000 -240 Descending FlightAware
06:59PM 47.9830 -122.7130 140° Southeast 267 307 10,000 -120 Level FlightAware
07:00PM 47.9550 -122.6800 142° Southeast 262 302 9,900 -720 Descending FlightAware
07:00PM 47.9400 -122.6620 141° Southeast 257 296 9,500 -2,160 Descending FlightAware
07:00PM 47.9150 -122.6310 140° Southeast 262 302 8,300 -2,100 Descending FlightAware
07:01PM 47.8860 -122.5960 141° Southeast 261 300 7,500 -1,320 Descending FlightAware
07:01PM 47.8590 -122.5620 140° Southeast 258 297 7,000 -1,140 Descending FlightAware
07:02PM 47.8360 -122.5350 142° Southeast 259 298 6,500 -1,260 Descending FlightAware
07:02PM 47.8080 -122.5000 140° Southeast 261 300 5,900 -1,200 Descending FlightAware
07:03PM 47.7970 -122.4870 142° Southeast 261 300 5,700 -1,020 Descending FlightAware
07:03PM 47.7750 -122.4610 142° Southeast 261 300 5,300 -960 Descending FlightAware
07:03PM 47.7580 -122.4400 140° Southeast 260 299 5,000 -900 Descending FlightAware
07:04PM 47.7270 -122.4060 144° Southeast 245 282 4,600 -720 Descending FlightAware
07:04PM 47.7070 -122.3850 145° Southeast 235 270 4,400 -900 Descending FlightAware
07:05PM 47.6810 -122.3590 146° Southeast 205 236 3,800 -780 Descending FlightAware
07:05PM 47.6680 -122.3460 146° Southeast 188 216 3,500 -720 Descending FlightAware
07:06PM 47.6340 -122.3110 145° Southeast 174 200 3,000 -780 Descending FlightAware
07:06PM 47.6250 -122.3070 163° South 177 204 3,000  Level FlightAware
07:07PM 47.6060 -122.3070 180° South 175 201 3,000 -120 Level FlightAware
07:07PM 47.5730 -122.3070 180° South 169 194 2,900 -720 Descending FlightAware
07:08PM 47.5320 -122.3070 180° South 1,800 -900 Descending FlightAware
07:10PM 47.4670 -122.3080 181° South 152 175 800 -600 Descending FlightAware
07:11PM 47.4297 -122.2783 181° South 168 193 400 -420 Descending Seattle Center